Location: New Town
(33.2710°N, 90.7534°W)
Time: 12:08:15
(UTC+00:00)

Vanguard 1 Rocket - All Passes

Search period start: 13 May 2021 00:00
Search period end: 23 May 2021 00:00
Orbit: 652 x 4224 km, 34.3° (Epoch: 12 May)

Date Brightness Start Highest point End Pass type
(mag) Time Alt. Az. Time Alt. Az. Time Alt. Az.
13 May - 08:42:09 10° S 09:01:13 27° SE 09:18:37 10° E visible
13 May - 11:06:57 10° SW 11:32:24 60° SSE 11:49:53 10° ENE daylight
13 May - 13:39:42 10° WSW 14:03:42 88° SSE 14:16:25 10° E daylight
13 May - 16:15:34 10° W 16:33:00 89° SSW 16:41:26 10° ESE daylight
13 May - 18:49:02 10° WNW 18:58:51 39° SW 19:04:30 10° SSE daylight
14 May - 07:34:52 10° SSE 07:47:17 16° SE 07:59:42 10° E visible
14 May - 09:53:52 10° SSW 10:17:46 47° SE 10:37:00 10° ENE visible
14 May - 12:23:39 10° WSW 12:49:31 79° SSE 13:04:57 10° ENE daylight
14 May - 14:59:02 10° W 15:20:13 86° N 15:30:40 10° E daylight
14 May - 17:34:00 10° WNW 17:47:50 64° SSW 17:54:50 10° SE daylight
14 May - 20:08:20 10° WSW 20:11:37 13° SW 20:14:19 10° SSW daylight
15 May - 08:42:26 10° SSW 09:03:19 34° SE 09:22:41 10° E visible
15 May - 11:08:45 10° SW 11:34:50 68° SSE 11:52:57 10° ENE daylight
15 May - 13:42:16 10° W 14:06:36 88° N 14:19:33 10° E daylight
15 May - 16:18:14 10° W 16:35:59 83° SSW 16:44:34 10° ESE daylight
15 May - 18:52:07 10° W 19:01:21 30° SW 19:06:57 10° SSE daylight
16 May - 07:33:20 10° S 07:49:21 22° SE 08:05:47 10° E visible
16 May - 09:55:16 10° SW 10:19:57 55° SE 10:40:11 10° ENE visible
16 May - 12:26:00 10° WSW 12:52:13 85° SSE 13:08:01 10° E daylight
16 May - 15:01:44 10° W 15:23:11 88° N 15:33:50 10° E daylight
16 May - 17:36:44 10° WNW 17:50:32 53° SSW 17:57:41 10° SE daylight
17 May - 06:31:57 10° SE 06:35:53 11° SE 06:39:56 10° ESE visible
17 May - 08:43:20 10° SSW 09:05:19 42° SE 09:26:15 10° ENE visible
17 May - 11:10:49 10° WSW 11:37:17 75° SSE 11:55:58 10° ENE daylight
17 May - 13:44:56 10° W 14:09:30 87° N 14:22:41 10° E daylight
17 May - 16:20:52 10° WNW 16:38:50 75° SSW 16:47:37 10° ESE daylight
17 May - 18:55:29 10° W 19:03:42 23° SW 19:09:04 10° S daylight
18 May - 07:33:13 10° S 07:51:15 28° SE 08:10:24 10° E visible
18 May - 09:57:00 10° SW 10:22:09 63° SSE 10:43:13 10° ENE visible
18 May - 12:28:32 10° WSW 12:54:58 89° S 13:11:05 10° E daylight
18 May - 15:04:24 10° W 15:26:08 88° SSW 15:36:59 10° ESE daylight
18 May - 17:39:31 10° WNW 17:53:03 44° SW 18:00:20 10° SSE daylight
19 May - 06:26:23 10° SSE 06:37:52 16° SE 06:50:27 10° E visible
19 May - 08:44:39 10° SSW 09:07:17 49° SE 09:29:29 10° ENE visible
19 May - 11:13:07 10° WSW 11:39:48 81° SSE 11:58:57 10° ENE daylight
19 May - 13:47:38 10° W 14:12:25 87° N 14:25:50 10° E daylight
19 May - 16:23:29 10° WNW 16:41:33 66° SSW 16:50:33 10° SE daylight
19 May - 18:59:21 10° W 19:05:54 17° SW 19:10:37 10° SSW daylight
20 May - 07:33:54 10° SSW 07:53:04 35° SE 08:14:14 10° E visible
20 May - 09:59:02 10° SW 10:24:23 70° SSE 10:46:10 10° ENE visible
20 May - 12:31:10 10° W 12:57:46 88° N 13:14:10 10° E daylight
20 May - 15:07:01 10° WNW 15:28:59 82° SSW 15:40:03 10° ESE daylight
20 May - 17:42:26 10° WNW 17:55:24 35° SW 18:02:45 10° SSE daylight
21 May - 06:25:21 10° S 06:39:40 22° SE 06:56:18 10° E visible
21 May - 08:46:21 10° SW 09:09:16 57° SE 09:32:31 10° ENE visible
21 May - 11:15:36 10° WSW 11:42:23 86° SSE 12:01:57 10° E daylight
21 May - 13:50:20 10° W 14:15:19 89° N 14:28:56 10° E daylight
21 May - 16:26:06 10° WNW 16:44:06 56° SW 16:53:19 10° SE daylight
21 May - 19:04:32 10° WSW 19:07:59 12° WSW 19:10:54 10° SW daylight
22 May - 07:35:07 10° SSW 07:54:51 42° SE 08:17:37 10° ENE visible
22 May - 10:01:18 10° WSW 10:26:42 77° SSE 10:49:05 10° ENE visible
22 May - 12:33:53 10° W 13:00:35 87° N 13:17:15 10° E daylight
22 May - 15:09:36 10° WNW 15:31:42 75° SSW 15:43:01 10° ESE daylight
22 May - 17:45:36 10° W 17:57:34 28° SW 18:04:52 10° S daylight
